BON363R FQBR-FACT

Flight info

Callsign BON363R
Flight time N/A
Altitude 34000
Route APMAV1A ETLAM UM310 GADSU UG466 EPSEK UZ33 NESAG UZ7 OKPIT DCT RAGUL UQ10 DUMDO UZ26 ERDAS ERDAS1B
Aircraft A321/M-SDE3FGHIRWY/LB1

Departure

Time 2026-05-07 20:11
Airport Beira International Airport (FQBR)

Arrival

Time N/A
Airport Cape Town International Airport (FACT)
Time Latitude Longitude Altitude Speed Heading
2026-05-07 19:45 -19.79665 34.90105 44 ft 0 kts 212°
2026-05-07 20:04 -19.79668 34.90102 44 ft 3 kts 212°
2026-05-07 20:04 -19.79714 34.90100 44 ft 9 kts 143°
2026-05-07 20:05 -19.79740 34.90165 44 ft 10 kts 105°
2026-05-07 20:05 -19.79761 34.90246 44 ft 12 kts 105°
2026-05-07 20:05 -19.79783 34.90333 43 ft 12 kts 105°
2026-05-07 20:05 -19.79775 34.90416 44 ft 12 kts 39°
2026-05-07 20:06 -19.79697 34.90441 43 ft 5 kts 15°
2026-05-07 20:06 -19.79671 34.90448 43 ft 0 kts 14°
2026-05-07 20:06 -19.79635 34.90458 43 ft 11 kts 14°
2026-05-07 20:07 -19.79584 34.90550 42 ft 22 kts 105°
2026-05-07 20:07 -19.79637 34.90739 43 ft 30 kts 105°
2026-05-07 20:07 -19.79688 34.90944 46 ft 28 kts 105°
2026-05-07 20:07 -19.79739 34.91143 44 ft 28 kts 105°
2026-05-07 20:08 -19.79788 34.91336 46 ft 27 kts 105°
2026-05-07 20:08 -19.79837 34.91528 43 ft 27 kts 105°
2026-05-07 20:08 -19.79894 34.91704 45 ft 20 kts 135°
2026-05-07 20:08 -19.79998 34.91779 44 ft 12 kts 114°
2026-05-07 20:09 -19.79959 34.91853 43 ft 13 kts 22°
2026-05-07 20:09 -19.79914 34.91845 40 ft 0 kts 281°
2026-05-07 20:10 -19.79899 34.91770 44 ft 38 kts 282°
2026-05-07 20:10 -19.79767 34.91248 46 ft 106 kts 285°
2026-05-07 20:10 -19.79523 34.90285 46 ft 162 kts 285°
2026-05-07 20:10 -19.79240 34.89091 631 ft 161 kts 281°
2026-05-07 20:11 -19.79061 34.87920 1288 ft 161 kts 263°
2026-05-07 20:11 -19.79549 34.86929 1890 ft 152 kts 217°
2026-05-07 20:11 -19.80465 34.86327 2158 ft 163 kts 201°
2026-05-07 20:11 -19.81583 34.85857 2301 ft 182 kts 200°
2026-05-07 20:12 -19.82839 34.85366 2420 ft 203 kts 199°
2026-05-07 20:12 -19.84227 34.84834 2556 ft 221 kts 199°
2026-05-07 20:12 -19.85751 34.84260 2652 ft 245 kts 199°
2026-05-07 20:12 -19.86476 34.83988 2738 ft 255 kts 199°